Regional Weather Roundup
Issued by NWS Kansas City/Pleasant Hill, MO

Home | Current Version | Previous Version | Text Only | Print | Product List | Glossary On
Versions: 1 2 3 4 5 6 7 8 9 10 11 12 13 14 15 16 17 18 19 20 21 22 23 24 25 26 27
000
ASUS43 KEAX 270810
RWREAX

WEATHER ROUNDUP FOR EASTERN KANSAS AND NORTHWEST MISSOURI
NATIONAL WEATHER SERVICE KANSAS CITY/PLEASANT HILL MO
300 AM CDT SAT AUG 27 2016

KSZ040-057-103>105-MOZ028-029-037-043-270900-
...KANSAS CITY METROPOLITAN AREA...

CITY           SKY/WX    TMP DP  RH WIND       PRES   REMARKS
K.C. INTL      PTCLDY    67  66  97 S5        30.01F
K.C. DOWNTOWN  MOCLDY    69  67  93 CALM      30.00F
LEES SUMMIT    PTCLDY    68  67  96 S3        30.02F
OLATHE - IXD   MOCLDY    69  67  93 SE6       30.02F
OLATHE - OJC   MOCLDY   N/A N/A N/A MISG      30.02F
LAWRENCE       CLOUDY    68  68 100 E5        30.00F

$$

MOZ001>008-011>017-020>025-030>033-038>040-044>046-053-054-270900-
...NORTHERN AND CENTRAL MISSOURI...

CITY           SKY/WX    TMP DP  RH WIND       PRES   REMARKS
ST. JOSEPH     CLOUDY    69  68  96 S5        30.00F FOG
MOSBY          CLOUDY    68  66  94 CALM      30.01F
WHITEMAN AFB   PTCLDY    70  70 100 NW6       30.02S
CLINTON        PTCLDY    68  68 100 N3        30.04R FOG
SEDALIA        FOG       72  70  93 CALM      30.04F VSB 1/4
WARSAW         NOT AVBL
CHILLICOTHE    NOT AVBL
KIRKSVILLE     PTCLDY    66  65  96 S8        30.02S

$$

MOZ041-047>049-056>058-063>065-088>090-097-270900-
...EASTERN AND SOUTHERN MISSOURI...

CITY           SKY/WX    TMP DP  RH WIND       PRES   REMARKS
ST. LOUIS INTL CLOUDY    79  71  76 SE7       30.06S
SPIRIT OF STL  CLOUDY    76  74  93 SE6       30.04S
COLUMBIA       PTCLDY    71  70  96 CALM      30.04R
JEFFERSON CITY LGT RAIN  74  71  91 CALM      30.02F
ROLLA          CLOUDY    73  70  90 SE6       30.05F
OSAGE BEACH    PTCLDY    71  70  96 CALM      30.06R
SPRINGFIELD    CLOUDY    74  70  87 S6        30.05S
BRANSON        PTCLDY    72  70  94 CALM      30.07S
JOPLIN         PTCLDY    68  68 100 E3        30.03S
WEST PLAINS    CLOUDY    69  66  90 CALM      30.11R

$$

IAZ060-094-KSZ022-034>040-054-083-096-NEZ052-066-093-270900-
...KANSAS...SOUTHEAST NEBRASKA AND IOWA...

CITY           SKY/WX    TMP DP  RH WIND       PRES   REMARKS
TOPEKA         CLEAR     68  67  96 CALM      29.99F
MANHATTAN      MOCLDY    70  68  93 CALM      29.99F
EMPORIA        CLOUDY    70  68  93 E5        30.01S
CHANUTE        PTCLDY    70  69  97 E3        30.01R
WICHITA        PTCLDY    70  67  90 S5        29.99F
OMAHA          CLOUDY    67  63  87 E7        30.00F
LINCOLN        CLOUDY    67  66  97 SE6       29.99F
FALLS CITY     FOG       67  67 100 NE3       29.99F VSB 1/4
LAMONI         PTCLDY    66  66 100 W6        30.00S
DES MOINES     CLOUDY    65  62  90 NE5       30.00S

$$





USA.gov is the U.S. government's official web portal to all federal, state and local government web resources and services.